******** Week 148 almanac for PRN-1 ******** ID: 1 Health: 0 Eccentricity: 0.01136684418 Time of Applicability(s): 405504 Orbital Inclination(rad): 0.9866516491 Rate of Right Ascen(r/s): -7.806039438e-09 SQRT(A) (m 1/2): 5153.625977 Right Ascen at Week(rad): -1.787305207 Argument of Perigee(rad): 0.8814359971 Mean Anom(rad): -3.019615716 Af0(s): 0.0003436754883 Af1(s/s): -1.091394e-11 week: 148 ******** Week 148 almanac for PRN-2 ******** ID: 2 Health: 0 Eccentricity: 0.0206785202 Time of Applicability(s): 405504 Orbital Inclination(rad): 0.9649961547 Rate of Right Ascen(r/s): -7.966046103e-09 SQRT(A) (m 1/2): 5153.641602 Right Ascen at Week(rad): -1.876500423 Argument of Perigee(rad): -1.44474625 Mean Anom(rad): -2.871818389 Af0(s): -0.0005140058838 Af1(s/s): 0 week: 148 ******** Week 148 almanac for PRN-3 ******** ID: 3 Health: 0 Eccentricity: 0.003887176514 Time of Applicability(s): 405504 Orbital Inclination(rad): 0.9725641927 Rate of Right Ascen(r/s): -7.657461821e-09 SQRT(A) (m 1/2): 5153.638672 Right Ascen at Week(rad): -0.751817242 Argument of Perigee(rad): 0.9608086422 Mean Anom(rad): 2.106986654 Af0(s): -9.119459228e-05 Af1(s/s): -1.818989e-11 week: 148 ******** Week 148 almanac for PRN-4 ******** ID: 4 Health: 0 Eccentricity: 0.001693725586 Time of Applicability(s): 405504 Orbital Inclination(rad): 0.9614308478 Rate of Right Ascen(r/s): -7.771752296e-09 SQRT(A) (m 1/2): 5153.598633 Right Ascen at Week(rad): 0.3291396215 Argument of Perigee(rad): -3.065383096 Mean Anom(rad): -1.234626834 Af0(s): -0.0001507348633 Af1(s/s): 3.637979e-12 week: 148 ******** Week 148 almanac for PRN-5 ******** ID: 5 Health: 0 Eccentricity: 0.005878925323 Time of Applicability(s): 405504 Orbital Inclination(rad): 0.9595373402 Rate of Right Ascen(r/s): -7.817468486e-09 SQRT(A) (m 1/2): 5153.616699 Right Ascen at Week(rad): -0.792153896 Argument of Perigee(rad): 1.009191954 Mean Anom(rad): -0.3668172756 Af0(s): -5.577189941e-05 Af1(s/s): 0 week: 148 ******** Week 148 almanac for PRN-6 ******** ID: 6 Health: 0 Eccentricity: 0.002687454224 Time of Applicability(s): 405504 Orbital Inclination(rad): 0.9860224773 Rate of Right Ascen(r/s): -7.806039438e-09 SQRT(A) (m 1/2): 5153.622559 Right Ascen at Week(rad): -1.795577693 Argument of Perigee(rad): -0.9646967742 Mean Anom(rad): -2.685316136 Af0(s): 0.0001560105835 Af1(s/s): 1.091394e-11 week: 148 ******** Week 148 almanac for PRN-7 ******** ID: 7 Health: 0 Eccentricity: 0.01552581787 Time of Applicability(s): 405504 Orbital Inclination(rad): 0.9506450453 Rate of Right Ascen(r/s): -7.908900866e-09 SQRT(A) (m 1/2): 5153.635254 Right Ascen at Week(rad): 1.348091603 Argument of Perigee(rad): -2.292205471 Mean Anom(rad): 2.594918004 Af0(s): 0.0002441904785 Af1(s/s): 3.637979e-12 week: 148 ******** Week 148 almanac for PRN-8 ******** ID: 8 Health: 0 Eccentricity: 0.007267951965 Time of Applicability(s): 405504 Orbital Inclination(rad): 0.9650620679 Rate of Right Ascen(r/s): -7.966046103e-09 SQRT(A) (m 1/2): 5153.670898 Right Ascen at Week(rad): -2.86694493 Argument of Perigee(rad): 0.1002139612 Mean Anom(rad): -0.7499229855 Af0(s): -4.371311035e-05 Af1(s/s): 0 week: 148 ******** Week 148 almanac for PRN-9 ******** ID: 9 Health: 0 Eccentricity: 0.002262592316 Time of Applicability(s): 405504 Orbital Inclination(rad): 0.9544440446 Rate of Right Ascen(r/s): -7.851755628e-09 SQRT(A) (m 1/2): 5153.567383 Right Ascen at Week(rad): 0.2762386312 Argument of Perigee(rad): 1.870308323 Mean Anom(rad): -0.3932690816 Af0(s): -0.0002803668457 Af1(s/s): 0 week: 148 ******** Week 148 almanac for PRN-10 ******** ID: 10 Health: 0 Eccentricity: 0.007493972778 Time of Applicability(s): 405504 Orbital Inclination(rad): 0.9723964136 Rate of Right Ascen(r/s): -7.634603726e-09 SQRT(A) (m 1/2): 5153.635254 Right Ascen at Week(rad): -0.7546084429 Argument of Perigee(rad): -2.517644471 Mean Anom(rad): 1.234487143 Af0(s): -0.000250219873 Af1(s/s): -1.091394e-11 week: 148 ******** Week 148 almanac for PRN-11 ******** ID: 11 Health: 255 Eccentricity: 0.0002717971802 Time of Applicability(s): 405504 Orbital Inclination(rad): 0.9617484297 Rate of Right Ascen(r/s): -8.034620388e-09 SQRT(A) (m 1/2): 5153.720703 Right Ascen at Week(rad): -1.74340774 Argument of Perigee(rad): 2.869894921 Mean Anom(rad): -0.897445049 Af0(s): -7.386008301e-05 Af1(s/s): 1.455192e-11 week: 148 ******** Week 148 almanac for PRN-12 ******** ID: 12 Health: 0 Eccentricity: 0.008672237396 Time of Applicability(s): 405504 Orbital Inclination(rad): 0.9703710795 Rate of Right Ascen(r/s): -7.691748963e-09 SQRT(A) (m 1/2): 5153.560059 Right Ascen at Week(rad): 2.461015263 Argument of Perigee(rad): 1.245836579 Mean Anom(rad): 1.939825442 Af0(s): -0.000133400354 Af1(s/s): -7.275958e-12 week: 148 ******** Week 148 almanac for PRN-13 ******** ID: 13 Health: 0 Eccentricity: 0.005798816681 Time of Applicability(s): 405504 Orbital Inclination(rad): 0.9688430909 Rate of Right Ascen(r/s): -7.714607058e-09 SQRT(A) (m 1/2): 5153.620117 Right Ascen at Week(rad): 0.4289588524 Argument of Perigee(rad): 0.9600113167 Mean Anom(rad): -1.326828592 Af0(s): 0.0002049994141 Af1(s/s): 7.275958e-12 week: 148 ******** Week 148 almanac for PRN-14 ******** ID: 14 Health: 0 Eccentricity: 0.001424312592 Time of Applicability(s): 405504 Orbital Inclination(rad): 0.9537549517 Rate of Right Ascen(r/s): -7.828897533e-09 SQRT(A) (m 1/2): 5153.600098 Right Ascen at Week(rad): 2.429800477 Argument of Perigee(rad): 3.020593928 Mean Anom(rad): 2.002990921 Af0(s): -6.481599121e-05 Af1(s/s): -3.637979e-12 week: 148 ******** Week 148 almanac for PRN-15 ******** ID: 15 Health: 0 Eccentricity: 0.01392698288 Time of Applicability(s): 405504 Orbital Inclination(rad): 0.9303197999 Rate of Right Ascen(r/s): -8.068907531e-09 SQRT(A) (m 1/2): 5153.675293 Right Ascen at Week(rad): 0.1703557571 Argument of Perigee(rad): 1.074392879 Mean Anom(rad): -1.748730983 Af0(s): -6.707701416e-05 Af1(s/s): 3.637979e-12 week: 148 ******** Week 148 almanac for PRN-16 ******** ID: 16 Health: 0 Eccentricity: 0.01274251938 Time of Applicability(s): 405504 Orbital Inclination(rad): 0.9703351269 Rate of Right Ascen(r/s): -7.668890868e-09 SQRT(A) (m 1/2): 5153.557617 Right Ascen at Week(rad): 2.479633506 Argument of Perigee(rad): 0.7067842699 Mean Anom(rad): 0.08589505951 Af0(s): -0.000369300415 Af1(s/s): -3.637979e-12 week: 148 ******** Week 148 almanac for PRN-17 ******** ID: 17 Health: 0 Eccentricity: 0.01363325119 Time of Applicability(s): 405504 Orbital Inclination(rad): 0.9801621913 Rate of Right Ascen(r/s): -7.828897533e-09 SQRT(A) (m 1/2): 5153.711914 Right Ascen at Week(rad): -2.785157838 Argument of Perigee(rad): -1.499890912 Mean Anom(rad): -0.8423093753 Af0(s): 0.0004529582642 Af1(s/s): 3.637979e-12 week: 148 ******** Week 148 almanac for PRN-18 ******** ID: 18 Health: 0 Eccentricity: 0.002093315124 Time of Applicability(s): 405504 Orbital Inclination(rad): 0.9704369928 Rate of Right Ascen(r/s): -7.966046103e-09 SQRT(A) (m 1/2): 5153.574219 Right Ascen at Week(rad): -1.779414344 Argument of Perigee(rad): 3.108654387 Mean Anom(rad): -2.822668836 Af0(s): 0.0001921869507 Af1(s/s): -7.275958e-12 week: 148 ******** Week 148 almanac for PRN-19 ******** ID: 19 Health: 0 Eccentricity: 0.008963108063 Time of Applicability(s): 405504 Orbital Inclination(rad): 0.9788918635 Rate of Right Ascen(r/s): -7.851755628e-09 SQRT(A) (m 1/2): 5153.63916 Right Ascen at Week(rad): -2.740287776 Argument of Perigee(rad): 2.006404178 Mean Anom(rad): 1.567183458 Af0(s): 9.270194092e-05 Af1(s/s): 3.637979e-12 week: 148 ******** Week 148 almanac for PRN-20 ******** ID: 20 Health: 0 Eccentricity: 0.005180358887 Time of Applicability(s): 405504 Orbital Inclination(rad): 0.9416868372 Rate of Right Ascen(r/s): -7.988904198e-09 SQRT(A) (m 1/2): 5153.693359 Right Ascen at Week(rad): -0.906103277 Argument of Perigee(rad): 3.127632531 Mean Anom(rad): -1.996390609 Af0(s): 0.0004084914795 Af1(s/s): 0 week: 148 ******** Week 148 almanac for PRN-21 ******** ID: 21 Health: 0 Eccentricity: 0.02458715439 Time of Applicability(s): 405504 Orbital Inclination(rad): 0.9592497188 Rate of Right Ascen(r/s): -8.011762293e-09 SQRT(A) (m 1/2): 5153.534668 Right Ascen at Week(rad): -1.878101815 Argument of Perigee(rad): -1.008330588 Mean Anom(rad): -0.6600281909 Af0(s): 0.0001243562622 Af1(s/s): 0 week: 148 ******** Week 148 almanac for PRN-22 ******** ID: 22 Health: 0 Eccentricity: 0.01287603378 Time of Applicability(s): 405504 Orbital Inclination(rad): 0.9615566821 Rate of Right Ascen(r/s): -7.771752296e-09 SQRT(A) (m 1/2): 5153.599121 Right Ascen at Week(rad): 0.3774375459 Argument of Perigee(rad): -1.873471035 Mean Anom(rad): -0.9701866727 Af0(s): 0.0001673156982 Af1(s/s): 7.275958e-12 week: 148 ******** Week 148 almanac for PRN-23 ******** ID: 23 Health: 0 Eccentricity: 0.001973152161 Time of Applicability(s): 405504 Orbital Inclination(rad): 0.9674349444 Rate of Right Ascen(r/s): -7.691748963e-09 SQRT(A) (m 1/2): 5153.65625 Right Ascen at Week(rad): -0.7794401314 Argument of Perigee(rad): 2.954348878 Mean Anom(rad): 2.55833803 Af0(s): 2.261022949e-06 Af1(s/s): -3.637979e-12 week: 148 ******** Week 148 almanac for PRN-24 ******** ID: 24 Health: 0 Eccentricity: 0.0123333931 Time of Applicability(s): 405504 Orbital Inclination(rad): 0.9341787203 Rate of Right Ascen(r/s): -8.103194673e-09 SQRT(A) (m 1/2): 5153.632324 Right Ascen at Week(rad): 1.265394085 Argument of Perigee(rad): 0.8071461614 Mean Anom(rad): -2.722877319 Af0(s): 0.0002178118774 Af1(s/s): 0 week: 148 ******** Week 148 almanac for PRN-25 ******** ID: 25 Health: 0 Eccentricity: 0.01048612595 Time of Applicability(s): 405504 Orbital Inclination(rad): 0.9577516907 Rate of Right Ascen(r/s): -7.806039438e-09 SQRT(A) (m 1/2): 5153.665527 Right Ascen at Week(rad): 2.384355173 Argument of Perigee(rad): 0.9800942561 Mean Anom(rad): 1.688943183 Af0(s): 0.000223841272 Af1(s/s): 7.275958e-12 week: 148 ******** Week 148 almanac for PRN-26 ******** ID: 26 Health: 0 Eccentricity: 0.006863594055 Time of Applicability(s): 405504 Orbital Inclination(rad): 0.9385649466 Rate of Right Ascen(r/s): -7.966046103e-09 SQRT(A) (m 1/2): 5153.645996 Right Ascen at Week(rad): 2.337450789 Argument of Perigee(rad): 0.367449818 Mean Anom(rad): 1.036837314 Af0(s): 0.0001439517944 Af1(s/s): 3.637979e-12 week: 148 ******** Week 148 almanac for PRN-27 ******** ID: 27 Health: 0 Eccentricity: 0.01019477844 Time of Applicability(s): 405504 Orbital Inclination(rad): 0.9737626152 Rate of Right Ascen(r/s): -7.897471818e-09 SQRT(A) (m 1/2): 5153.60498 Right Ascen at Week(rad): -2.847565689 Argument of Perigee(rad): 0.6368967643 Mean Anom(rad): -0.7976048458 Af0(s): 8.968724365e-05 Af1(s/s): 1.818989e-11 week: 148 ******** Week 148 almanac for PRN-29 ******** ID: 29 Health: 0 Eccentricity: 0.00182056427 Time of Applicability(s): 405504 Orbital Inclination(rad): 0.982169549 Rate of Right Ascen(r/s): -7.828897533e-09 SQRT(A) (m 1/2): 5153.709473 Right Ascen at Week(rad): -2.772160571 Argument of Perigee(rad): 2.262588706 Mean Anom(rad): -0.6765181098 Af0(s): -0.0003783445068 Af1(s/s): -3.637979e-12 week: 148 ******** Week 148 almanac for PRN-30 ******** ID: 30 Health: 0 Eccentricity: 0.005498409271 Time of Applicability(s): 405504 Orbital Inclination(rad): 0.935814567 Rate of Right Ascen(r/s): -8.080336578e-09 SQRT(A) (m 1/2): 5153.518066 Right Ascen at Week(rad): 1.361302713 Argument of Perigee(rad): -2.746786222 Mean Anom(rad): 2.629184648 Af0(s): -0.0004047231079 Af1(s/s): -3.637979e-12 week: 148 ******** Week 148 almanac for PRN-31 ******** ID: 31 Health: 0 Eccentricity: 0.01045656204 Time of Applicability(s): 405504 Orbital Inclination(rad): 0.9548754767 Rate of Right Ascen(r/s): -7.886042771e-09 SQRT(A) (m 1/2): 5153.628418 Right Ascen at Week(rad): 1.366171679 Argument of Perigee(rad): 0.3751069887 Mean Anom(rad): 2.141528935 Af0(s): -0.0001296319824 Af1(s/s): -3.637979e-12 week: 148 ******** Week 148 almanac for PRN-32 ******** ID: 32 Health: 0 Eccentricity: 0.005553722382 Time of Applicability(s): 405504 Orbital Inclination(rad): 0.958296973 Rate of Right Ascen(r/s): -7.806039438e-09 SQRT(A) (m 1/2): 5153.716797 Right Ascen at Week(rad): 0.2874180405 Argument of Perigee(rad): -2.356804563 Mean Anom(rad): -0.1472992319 Af0(s): -5.200352783e-05 Af1(s/s): -7.275958e-12 week: 148